Flag Weather past 2 weeks in London, Ontario, Canada

Now
30 °F

Snow flurries. Overcast.


Feels Like: 21 °F
Forecast: 25 / 33 °F
Wind: 10 mph from West

Location: London Weather Station

Current Time: Nov 27, 2014 at 11:01:21 AM

Latest Report: Nov 27, 2014 at 10:00 AM


Visibility: 2 mi

Pressure: 30.10 "Hg

Humidity: 86%

Dew point: 27 °F

Location of LondonLocation

Historic Weather in London — Graph

°F

London temperature yesterday

Maximum temperature yesterday: 34 °F (at 2:00 PM)
Minimum temperature yesterday: 30 °F (at 12:00 AM)
Average temperature yesterday: 31 °F

Past Weeks' High & Low Weather Summary

 TemperatureHumidityPressure
High55 °F (Nov 24, 6:00 AM)100% (Nov 16, 8:50 PM)30.48 "Hg (Nov 16, 8:50 PM)
Low12 °F (Nov 18, 5:00 AM)49% (Nov 21, 3:00 PM)29.13 "Hg (Nov 24, 5:00 AM)
Average29 °F80%30.00 "Hg
* Reported Nov 12 10:00 AM — Nov 27 10:00 AM, London, Weather by CustomWeather, © 2014

Note: Actual official high and low records may vary slightly from our data, if they occured in-between our weather recording intervals... More about our weather records

Advertising

London weather history for previous 24 hours

 ConditionsComfort  
Time TempWeatherWind HumidityBarometerVisibility
10:00 AM
Nov 27
30 °FSnow flurries. Overcast.10 mph86%30.10 "Hg2 mi
9:00 AM30 °FSnow flurries. More clouds than sun.6 mph93%30.10 "Hg2 mi
8:00 AM28 °FSnow flurries. Mostly cloudy.No wind100%30.09 "Hg2 mi
7:00 AM28 °FSnow flurries. Overcast.2 mph100%30.08 "Hg2 mi
6:00 AM30 °FSnow flurries. Overcast.3 mph93%30.08 "Hg2 mi
5:00 AM30 °FSnow flurries. Mostly cloudy.5 mph86%30.07 "Hg6 mi
4:00 AM30 °FSnow flurries. Overcast.3 mph86%30.06 "Hg12 mi
3:00 AM30 °FSnow flurries. Overcast.No wind86%30.07 "Hg8 mi
2:00 AM30 °FSnow flurries. Mostly cloudy.2 mph86%30.07 "Hg12 mi
1:52 AM30 °FSnow flurries. Mostly cloudy.2 mph86%30.07 "Hg12 mi
1:00 AM30 °FMostly cloudy.5 mph86%30.07 "Hg12 mi
12:46 AM30 °FLight snow. Overcast.3 mph86%30.07 "Hg12 mi
12:00 AM30 °FOvercast.5 mph86%30.08 "Hg15 mi
11:00 PM
Nov 26
30 °FOvercast.5 mph86%30.08 "Hg15 mi
10:00 PM30 °FOvercast.5 mph86%30.08 "Hg15 mi
9:00 PM30 °FOvercast.3 mph86%30.09 "Hg15 mi
8:00 PM32 °FOvercast.7 mph80%30.09 "Hg15 mi
7:00 PM32 °FOvercast.7 mph80%30.09 "Hg15 mi
6:00 PM32 °FOvercast.7 mph80%30.10 "Hg15 mi
5:00 PM32 °FOvercast.9 mph80%30.11 "Hg15 mi
4:00 PM32 °FOvercast.12 mph80%30.11 "Hg15 mi
3:00 PM32 °FOvercast.10 mph80%30.11 "Hg15 mi
2:00 PM34 °FOvercast.9 mph70%30.14 "Hg15 mi
1:00 PM32 °FOvercast.10 mph75%30.15 "Hg15 mi
12:00 PM32 °FOvercast.7 mph75%30.16 "Hg15 mi
11:00 AM32 °FOvercast.7 mph80%30.16 "Hg15 mi
Weather by CustomWeather, © 2014

See weather overviewHow to use our weather pages